[[{"header":{"parameterUnit":"m.s-1","parameterCategory":1,"la1":30.2991,"la2":30.254,"lo1":-89.0895,"lo2":-89.0444,"dy":0.0017,"dx":0.0017,"nx":28,"ny":28,"refTime":"2024-05-28T03:00:00:Z","depth":0,"parameterNumber":2,"parameterNumberName":"U-component_of_WINDS"},"data":[0,0,0,0,0,0,0,0,0,0,0,0,0,0,0,0,0,0,0,0,0,0,0,0,0,0,0,0,0,0,0,0,0,0,0,0,0,0,0,0,0,0,0,0,0,0,0,0,0,0,0,0,0,0,0,0,0,0,-1.8336,-1.8335,0,-1.8281,-1.8281,-1.828,-1.8268,-1.8268,-1.8269,-1.8269,-1.8207,-1.8205,-1.8203,0,0,0,0,0,0,0,0,0,0,0,0,0,-1.8426,-1.8425,-1.8336,-1.8335,-1.8335,-1.8281,-1.828,-1.828,-1.8268,-1.8268,-1.8269,-1.8269,-1.8207,-1.8205,-1.8202,0,0,0,0,0,0,0,0,0,0,0,0,0,-1.8381,-1.8424,-1.8336,-1.8322,-1.8321,-1.8281,-1.828,-1.8279,-1.8268,-1.8268,-1.8269,-1.827,-1.8208,-1.8205,-1.8202,-1.8171,0,0,-1.8193,-1.8191,0,0,0,0,0,0,0,0,-1.8383,-1.8377,-1.8325,-1.8323,-1.8321,-1.8282,-1.8289,-1.8243,-1.8268,-1.8288,-1.8269,-1.827,-1.8231,-1.8226,-1.8214,-1.8168,-1.8165,-1.8192,-1.8191,-1.8189,-1.8188,0,0,0,0,0,0,0,-1.8387,-1.838,-1.8314,-1.8324,-1.8322,-1.8318,-1.8312,-1.8281,-1.8256,-1.8286,-1.8285,-1.8279,-1.823,-1.8217,-1.8212,-1.8164,-1.8192,-1.819,-1.8188,-1.8187,-1.809,-1.8089,0,0,0,0,0,0,-1.8393,-1.8382,-1.8316,-1.8312,-1.8355,-1.8316,-1.8309,-1.8294,-1.8257,-1.8252,-1.8278,-1.8279,-1.8222,-1.8216,-1.821,-1.8171,-1.8189,-1.8186,-1.8185,-1.8091,-1.809,-1.8089,0,0,0,0,0,0,-1.8395,-1.8387,-1.8318,-1.8347,-1.8338,-1.8313,-1.8296,-1.8293,-1.828,-1.8251,-1.8246,-1.827,-1.8222,-1.8215,-1.8181,-1.8169,-1.8185,-1.8182,-1.8092,-1.8091,-1.809,-1.8092,0,0,0,0,0,0,-1.8397,-1.8388,-1.8376,-1.8347,-1.8337,-1.8291,-1.8296,-1.8291,-1.8275,-1.8275,-1.8242,-1.8237,-1.8222,-1.8186,-1.8178,-1.8165,-1.818,-1.8093,-1.8091,-1.809,-1.8093,-1.8091,-1.809,0,0,0,0,0,-1.8401,-1.8377,-1.8376,-1.8368,-1.8322,-1.829,-1.8284,-1.8269,-1.8274,-1.8262,-1.8244,-1.8238,-1.8172,-1.8183,-1.8174,-1.8159,-1.8093,-1.8092,-1.809,-1.8094,-1.8092,-1.809,0,0,0,0,0,0,-1.8403,-1.8373,-1.8371,-1.8338,-1.8317,-1.8288,-1.8272,-1.8268,-1.8243,-1.8243,-1.8225,-1.8217,-1.8185,-1.8169,-1.8181,-1.8127,-1.8133,-1.8129,-1.8138,-1.8136,-1.8135,-1.8138,-1.8177,0,0,0,0,0,-1.84,-1.8378,-1.8353,-1.8326,-1.8317,-1.8297,-1.8282,-1.8273,-1.825,-1.824,-1.8219,-1.8195,-1.8169,-1.8152,-1.8127,-1.8092,-1.8084,-1.8077,-1.8076,-1.8075,-1.8071,-1.8051,-1.8048,-1.8084,-1.8084,-1.8084,0,0,-1.8392,-1.8374,-1.8361,-1.8327,-1.8309,-1.8286,-1.8289,-1.8264,-1.8246,-1.8235,-1.8203,-1.8188,-1.816,-1.8126,-1.8109,-1.8111,-1.806,-1.8073,-1.8072,-1.8069,-1.8049,-1.8046,-1.8043,-1.8083,-1.8083,-1.8083,0,0,-1.8367,-1.8352,-1.8328,-1.8311,-1.8287,-1.8274,-1.8269,-1.8241,-1.8231,-1.8199,-1.8192,-1.817,-1.8125,-1.8106,-1.809,-1.8062,-1.8055,-1.8054,-1.8044,-1.8025,-1.8022,-1.802,-1.8008,-1.8005,-1.8051,-1.8051,-1.8051,0,-1.836,-1.8326,-1.8315,-1.8291,-1.8276,-1.827,-1.8245,-1.8229,-1.8196,-1.8185,-1.8189,-1.8134,-1.8115,-1.8076,-1.807,-1.8058,-1.805,-1.8056,-1.8024,-1.8021,-1.8019,-1.8008,-1.8004,-1.8051,-1.8051,-1.8051,-1.8051,0,-1.8319,-1.8296,-1.8279,-1.8251,-1.8234,-1.821,-1.8194,-1.8179,-1.8173,-1.8159,-1.8127,-1.8105,-1.8075,-1.8066,-1.8058,-1.8026,-1.8028,-1.8028,-1.8033,-1.8015,-1.8005,-1.8,-1.8051,-1.8051,-1.8051,-1.8051,0,0,-1.8288,-1.8258,-1.8251,-1.8239,-1.8213,-1.8194,-1.817,-1.8143,-1.813,-1.8109,-1.8087,-1.8051,-1.8052,-1.8035,-1.8025,-1.8009,-1.7987,-1.8011,-1.801,-1.8006,-1.795,-1.7949,-1.7944,-1.7984,-1.7983,-1.7983,-1.7952,0,-1.8258,-1.8216,-1.8207,-1.8171,-1.8149,-1.8145,-1.8124,-1.8105,-1.8093,-1.8072,-1.8058,-1.8033,-1.8036,-1.8026,-1.801,-1.7993,-1.7975,-1.7996,-1.7961,-1.796,-1.7966,-1.7938,-1.7936,-1.7908,-1.7948,-1.7947,-1.7947,0,-1.8215,-1.8196,-1.8158,-1.8137,-1.8128,-1.8109,-1.8085,-1.8066,-1.8045,-1.8037,-1.802,-1.8013,-1.7986,-1.7995,-1.7958,-1.7972,-1.7959,-1.7949,-1.7947,-1.7941,-1.795,-1.7929,-1.7899,-1.7894,-1.794,-1.7941,-1.7941,0,-1.8195,-1.816,-1.8133,-1.8123,-1.8098,-1.8085,-1.8073,-1.8053,-1.8039,-1.8018,-1.8008,-1.7983,-1.7969,-1.795,-1.7936,-1.7944,-1.79,-1.7907,-1.7891,-1.7891,-1.7879,-1.7879,-1.7843,-1.7875,-1.7875,-1.7875,-1.7875,0,-1.816,-1.8137,-1.8124,-1.8107,-1.808,-1.8071,-1.8045,-1.8033,-1.8017,-1.7996,-1.7991,-1.7972,-1.7957,-1.7935,-1.7925,-1.7895,-1.7889,-1.7881,-1.7878,-1.788,-1.7881,-1.7868,-1.7869,-1.7874,-1.7874,-1.7874,-1.7874,0,-1.8131,-1.8122,-1.8092,-1.8073,-1.8067,-1.8049,-1.8031,-1.8014,-1.8004,-1.7979,-1.7972,-1.7956,-1.793,-1.7917,-1.7884,-1.7877,-1.7844,-1.7843,-1.7851,-1.7849,-1.7833,-1.7834,-1.7785,-1.7778,-1.7817,-1.7816,-1.7816,0,-1.8108,-1.809,-1.807,-1.8058,-1.8047,-1.8027,-1.8013,-1.8005,-1.799,-1.7967,-1.7952,-1.7928,-1.7907,-1.7867,-1.7851,-1.7826,-1.7823,-1.7808,-1.7819,-1.7822,-1.7821,-1.7821,-1.7819,-1.7805,-1.7805,-1.7804,-1.7804,0,-1.8067,-1.8065,-1.8046,-1.8027,-1.8011,-1.7994,-1.7978,-1.7968,-1.7956,-1.794,-1.7916,-1.7901,-1.787,-1.7845,-1.782,-1.7807,-1.7803,-1.7802,-1.7796,-1.7796,-1.7802,-1.7797,-1.7843,-1.7802,-1.7802,-1.7802,-1.7802,-1.7802,-1.8038,-1.8023,-1.8008,-1.7987,-1.7975,-1.7961,-1.7945,-1.7935,-1.7915,-1.7891,-1.7887,-1.7861,-1.7843,-1.7809,-1.7796,-1.7775,-1.7777,-1.777,-1.7767,-1.7765,-1.7764,-1.7808,-1.777,-1.7771,-1.7771,-1.7771,-1.7771,0,-1.7996,-1.7987,-1.7969,-1.7948,-1.7932,-1.7935,-1.7918,-1.7904,-1.7882,-1.7866,-1.7848,-1.7821,-1.7798,-1.7782,-1.7758,-1.7744,-1.7742,-1.7738,-1.7737,-1.7734,-1.7763,-1.777,-1.774,-1.774,-1.7741,-1.7741,-1.7741,-1.7741,-1.7971,-1.7945,-1.7942,-1.791,-1.7901,-1.7878,-1.7868,-1.7854,-1.7842,-1.7813,-1.7795,-1.7786,-1.777,-1.7746,-1.7725,-1.7721,-1.7711,-1.7707,-1.7702,-1.7729,-1.7732,-1.7735,-1.7741,-1.7706,-1.7706,-1.7675,-1.7674,-1.7674]},{"header":{"parameterUnit":"m.s-1","parameterCategory":1,"la1":30.2991,"la2":30.254,"lo1":-89.0895,"lo2":-89.0444,"dy":0.0017,"dx":0.0017,"nx":28,"ny":28,"refTime":"2024-05-28T03:00:00:Z","depth":0,"parameterNumber":3,"parameterNumberName":"V-component_of_WINDS"},"data":[0,0,0,0,0,0,0,0,0,0,0,0,0,0,0,0,0,0,0,0,0,0,0,0,0,0,0,0,0,0,0,0,0,0,0,0,0,0,0,0,0,0,0,0,0,0,0,0,0,0,0,0,0,0,0,0,0,0,-0.9361,-0.9361,0,-0.9318,-0.9317,-0.9317,-0.9277,-0.9277,-0.9276,-0.9276,-0.9229,-0.9228,-0.9227,0,0,0,0,0,0,0,0,0,0,0,0,0,-0.9408,-0.9408,-0.9361,-0.9361,-0.936,-0.9318,-0.9317,-0.9317,-0.9277,-0.9277,-0.9276,-0.9276,-0.9229,-0.9228,-0.9227,0,0,0,0,0,0,0,0,0,0,0,0,0,-0.9379,-0.9407,-0.9362,-0.9336,-0.9333,-0.9318,-0.9317,-0.9316,-0.9278,-0.9277,-0.9276,-0.9275,-0.923,-0.9228,-0.9227,-0.9234,0,0,-0.9223,-0.9223,0,0,0,0,0,0,0,0,-0.938,-0.9377,-0.934,-0.9337,-0.9334,-0.9302,-0.9316,-0.9289,-0.9278,-0.9299,-0.9276,-0.9275,-0.9254,-0.9251,-0.9244,-0.9231,-0.9229,-0.9223,-0.9223,-0.9222,-0.9222,0,0,0,0,0,0,0,-0.9382,-0.9378,-0.9344,-0.934,-0.9336,-0.9325,-0.932,-0.9311,-0.928,-0.9297,-0.9294,-0.9289,-0.9252,-0.9245,-0.9242,-0.9229,-0.9223,-0.9222,-0.9221,-0.9221,-0.9218,-0.9218,0,0,0,0,0,0,-0.9389,-0.938,-0.9345,-0.9343,-0.9356,-0.9325,-0.932,-0.9313,-0.9281,-0.9275,-0.929,-0.9288,-0.9248,-0.9244,-0.9241,-0.9245,-0.9222,-0.9221,-0.922,-0.9217,-0.9218,-0.9219,0,0,0,0,0,0,-0.939,-0.9386,-0.9347,-0.9361,-0.9355,-0.9325,-0.9318,-0.9313,-0.9306,-0.9275,-0.927,-0.9288,-0.9247,-0.9242,-0.9235,-0.9243,-0.922,-0.9219,-0.9216,-0.9217,-0.9218,-0.9255,0,0,0,0,0,0,-0.9391,-0.9387,-0.9389,-0.9361,-0.9355,-0.9344,-0.9319,-0.9312,-0.9304,-0.9301,-0.9273,-0.9267,-0.9246,-0.9238,-0.9234,-0.9241,-0.9218,-0.9216,-0.9217,-0.9218,-0.9253,-0.9257,-0.9261,0,0,0,0,0,-0.9393,-0.9401,-0.939,-0.9386,-0.9358,-0.9344,-0.934,-0.9317,-0.9305,-0.9307,-0.9287,-0.9268,-0.9243,-0.9237,-0.9233,-0.924,-0.9215,-0.9217,-0.9218,-0.9251,-0.9256,-0.9261,0,0,0,0,0,0,-0.9431,-0.9397,-0.9384,-0.9383,-0.9367,-0.9338,-0.934,-0.9323,-0.9309,-0.9306,-0.9276,-0.927,-0.9267,-0.9252,-0.9247,-0.9243,-0.9226,-0.9227,-0.9253,-0.9258,-0.9261,-0.9265,-0.9217,0,0,0,0,0,-0.9439,-0.9432,-0.9403,-0.9405,-0.9397,-0.937,-0.9363,-0.9346,-0.9328,-0.9321,-0.9301,-0.9283,-0.9271,-0.9263,-0.925,-0.9251,-0.9243,-0.9253,-0.9257,-0.926,-0.9261,-0.9259,-0.9263,-0.9224,-0.9224,-0.9223,0,0,-0.9456,-0.9436,-0.9434,-0.9412,-0.9397,-0.939,-0.9365,-0.9358,-0.9352,-0.9319,-0.9312,-0.9296,-0.9274,-0.9271,-0.9268,-0.9259,-0.927,-0.9262,-0.9265,-0.9264,-0.9261,-0.9265,-0.9268,-0.9225,-0.9224,-0.9224,0,0,-0.9482,-0.9468,-0.9467,-0.9453,-0.9432,-0.9413,-0.9414,-0.9387,-0.9375,-0.9367,-0.9343,-0.9334,-0.9315,-0.93,-0.929,-0.931,-0.9291,-0.9307,-0.9327,-0.9325,-0.9328,-0.9331,-0.9337,-0.934,-0.9308,-0.9308,-0.9308,0,-0.9506,-0.9494,-0.9469,-0.9464,-0.9455,-0.9426,-0.9425,-0.9412,-0.9387,-0.9381,-0.9371,-0.9345,-0.9328,-0.932,-0.9325,-0.9318,-0.9316,-0.931,-0.933,-0.9332,-0.9334,-0.934,-0.9343,-0.931,-0.9309,-0.9309,-0.9309,0,-0.9524,-0.9516,-0.9519,-0.9496,-0.9487,-0.9484,-0.9457,-0.9451,-0.9434,-0.9417,-0.9408,-0.9387,-0.9369,-0.9366,-0.935,-0.9356,-0.9351,-0.9336,-0.9318,-0.934,-0.9346,-0.9348,-0.9312,-0.9312,-0.9311,-0.9311,0,0,-0.9573,-0.9537,-0.9538,-0.9527,-0.9501,-0.9494,-0.9489,-0.9472,-0.9467,-0.945,-0.9445,-0.9428,-0.9414,-0.9403,-0.9384,-0.9383,-0.94,-0.9368,-0.9367,-0.9374,-0.9404,-0.9415,-0.9418,-0.9387,-0.9388,-0.9388,-0.9406,0,-0.9595,-0.9586,-0.9563,-0.956,-0.9552,-0.9524,-0.952,-0.9503,-0.9486,-0.9476,-0.9457,-0.9446,-0.9428,-0.9421,-0.9419,-0.9398,-0.9405,-0.9397,-0.9381,-0.9381,-0.9387,-0.9421,-0.9433,-0.9451,-0.9407,-0.9408,-0.9408,0,-0.962,-0.9606,-0.9603,-0.9576,-0.9572,-0.9569,-0.9551,-0.9542,-0.9522,-0.9509,-0.9496,-0.9476,-0.9468,-0.9452,-0.944,-0.9435,-0.9427,-0.9416,-0.9416,-0.9413,-0.9396,-0.9419,-0.9456,-0.9459,-0.9411,-0.9411,-0.9411,0,-0.9656,-0.9636,-0.9631,-0.9623,-0.9592,-0.959,-0.9577,-0.9556,-0.9547,-0.9531,-0.9525,-0.9508,-0.9499,-0.9486,-0.9461,-0.9451,-0.9451,-0.9433,-0.944,-0.9441,-0.9441,-0.9442,-0.9477,-0.9437,-0.9437,-0.9437,-0.9437,0,-0.9683,-0.9682,-0.9647,-0.9644,-0.9641,-0.9614,-0.9612,-0.9596,-0.9578,-0.9571,-0.9545,-0.9538,-0.9506,-0.9496,-0.9476,-0.9469,-0.9465,-0.9454,-0.9449,-0.9456,-0.9458,-0.945,-0.9448,-0.9438,-0.9437,-0.9437,-0.9437,0,-0.9722,-0.9699,-0.9692,-0.9663,-0.9656,-0.9655,-0.963,-0.9626,-0.9608,-0.9599,-0.9595,-0.9566,-0.9552,-0.9526,-0.9505,-0.9491,-0.9488,-0.9479,-0.9495,-0.9492,-0.95,-0.95,-0.9533,-0.9535,-0.9494,-0.9494,-0.9495,0,-0.9741,-0.9739,-0.9711,-0.9704,-0.9693,-0.9683,-0.9674,-0.9647,-0.9638,-0.9614,-0.9612,-0.9597,-0.9583,-0.9561,-0.9538,-0.9521,-0.9511,-0.9524,-0.9508,-0.9516,-0.9511,-0.9511,-0.951,-0.9527,-0.9528,-0.9528,-0.9529,0,-0.9776,-0.9765,-0.9753,-0.9737,-0.9727,-0.9713,-0.9698,-0.9694,-0.9663,-0.9654,-0.964,-0.9629,-0.9608,-0.9592,-0.9572,-0.9557,-0.9537,-0.9534,-0.9534,-0.9542,-0.9551,-0.9546,-0.9504,-0.9533,-0.9533,-0.9532,-0.9532,-0.9532,-0.9805,-0.9802,-0.9782,-0.9769,-0.9755,-0.9741,-0.9736,-0.9717,-0.9705,-0.9686,-0.967,-0.9657,-0.9635,-0.9606,-0.9593,-0.9581,-0.9572,-0.9573,-0.9573,-0.9574,-0.9577,-0.9553,-0.9577,-0.9577,-0.9577,-0.9577,-0.9577,0,-0.9839,-0.9824,-0.9813,-0.9793,-0.9783,-0.9766,-0.9748,-0.974,-0.9729,-0.9711,-0.9698,-0.9682,-0.9666,-0.9641,-0.9623,-0.9619,-0.9609,-0.9615,-0.9615,-0.9611,-0.9586,-0.9587,-0.9623,-0.9623,-0.9623,-0.9623,-0.9623,-0.9623,-0.9855,-0.9849,-0.9835,-0.9822,-0.9807,-0.9795,-0.9785,-0.9772,-0.9757,-0.974,-0.9728,-0.9712,-0.969,-0.9671,-0.9655,-0.9648,-0.9643,-0.9651,-0.9641,-0.9618,-0.9613,-0.9609,-0.961,-0.965,-0.965,-0.9667,-0.9667,-0.9668]}]]